Вернуться в каталог

INMARSAT 3-F5

АктивенСвязьGEO
NORAD 25153·PAYLOAD·🇮🇲 IM

Запущен Feb 4, 1998 с Guiana Space Centre

Loading…

TLE

СвежийSource: Space-Track

Эпоха: Sep 14, 2026, 08:24 UTC

1 25153U 98006B   26257.35055836 -.00000297  00000-0  00000-0 0  9995
2 25153   9.8884  52.3434 0004371 118.7537 254.4527  1.00274860104791

Отслеживайте INMARSAT 3-F5 в реальном времени с AllMySat

Download on the App Store